Flight Track Log - Related Links

Times and Time Zones

All times are in EDT time to prevent confusion due to time zone crossing. See the CPT7773 flight status page for this flight to view local times or setup timezone preferences in your user account.

Time Position Orientation Groundspeed Altitude Reporting Facility
EDT Latitude Longitude Course Direction KTS MPH feet Rate Location/Type
Fri 07:59:31 PM 44.3697 -108.7631 134° Southeast 133 153 12,200  Level Salt Lake Center
Fri 08:00:33 PM 44.3358 -108.7133 134° Southeast 149 171 12,100 -48 Descending Salt Lake Center
Fri 08:01:35 PM 44.3006 -108.6564 131° Southeast 170 196 12,100  Level Salt Lake Center
Fri 08:02:36 PM 44.2642 -108.5972 131° Southeast 186 214 12,100  Level Salt Lake Center
Fri 08:03:38 PM 44.2219 -108.5303 131° Southeast 192 221 12,100  Level Salt Lake Center
Fri 08:04:40 PM 44.1889 -108.4758 130° Southeast 190 219 12,100  Level Salt Lake Center
Fri 08:06:31 PM 44.1289 -108.3786 131° Southeast 185 213 12,100  Level Denver Center
Fri 08:07:33 PM 44.0961 -108.3244 130° Southeast 184 212 12,100  Level Denver Center
Fri 08:08:35 PM 44.0633 -108.2708 130° Southeast 184 212 12,100  Level Denver Center
Fri 08:09:38 PM 44.0225 -108.2072 132° Southeast 184 212 12,100  Level Denver Center
Fri 08:10:40 PM 43.9892 -108.1522 130° Southeast 184 212 12,100  Level Denver Center
Fri 08:11:42 PM 43.9550 -108.0981 131° Southeast 186 214 12,100  Level Denver Center
Fri 08:12:44 PM 43.9203 -108.0450 132° Southeast 187 215 12,100  Level Denver Center
Fri 08:13:46 PM 43.8861 -107.9894 130° Southeast 188 216 12,100  Level Denver Center
Fri 08:14:48 PM 43.8539 -107.9372 131° Southeast 185 213 12,100  Level Denver Center
Fri 08:15:50 PM 43.8122 -107.8733 132° Southeast 185 213 12,100  Level Denver Center
Fri 08:16:52 PM 43.7789 -107.8203 131° Southeast 184 212 12,100  Level Denver Center
Fri 08:18:06 PM 43.7372 -107.7583 133° Southeast 184 212 12,100  Level Salt Lake Center
Fri 08:19:08 PM 43.7031 -107.7022 130° Southeast 187 215 12,100  Level Salt Lake Center
Fri 08:20:10 PM 43.6703 -107.6486 130° Southeast 186 214 12,100  Level Salt Lake Center
Fri 08:21:12 PM 43.6386 -107.5928 128° Southeast 185 213 12,100  Level Salt Lake Center
Fri 08:22:14 PM 43.5969 -107.5289 132° Southeast 186 214 12,100  Level Salt Lake Center
Fri 08:23:16 PM 43.5625 -107.4758 132° Southeast 187 215 12,100  Level Salt Lake Center
Fri 08:24:18 PM 43.5294 -107.4222 130° Southeast 185 213 12,100  Level Salt Lake Center
Fri 08:25:20 PM 43.4953 -107.3681 131° Southeast 186 214 12,100  Level Salt Lake Center
Fri 08:26:22 PM 43.4597 -107.3144 132° Southeast 188 216 12,100  Level Salt Lake Center
Fri 08:27:24 PM 43.4236 -107.2586 132° Southeast 192 221 12,100  Level Salt Lake Center
Fri 08:28:25 PM 43.3825 -107.1942 131° Southeast 188 216 12,100  Level Salt Lake Center
Fri 08:29:27 PM 43.3467 -107.1397 132° Southeast 190 219 12,100  Level Salt Lake Center
Fri 08:30:29 PM 43.3153 -107.0889 130° Southeast 180 207 12,100  Level Salt Lake Center
Fri 08:31:31 PM 43.2819 -107.0378 132° Southeast 179 206 12,100  Level Salt Lake Center
Fri 08:32:33 PM 43.2494 -106.9872 131° Southeast 177 204 12,100  Level Salt Lake Center
Fri 08:33:35 PM 43.2108 -106.9308 133° Southeast 179 206 12,100 -145 Level Salt Lake Center
Fri 08:34:37 PM 43.1786 -106.8803 131° Southeast 182 209 11,800 -823 Descending Salt Lake Center
Fri 08:35:39 PM 43.1328 -106.8158 134° Southeast 206 237 10,400 -973 Descending Salt Lake Center
Fri 08:36:28 PM 43.1036 -106.7669 129° Southeast 208 239 10,000 -649 Descending Denver Center
Fri 08:37:30 PM 43.0697 -106.7131 131° Southeast 201 231 9,200 -823 Descending Denver Center
Fri 08:38:32 PM 43.0269 -106.6556 135° Southeast 195 224 8,300 -677 Descending Denver Center
Fri 08:39:34 PM 42.9881 -106.6094 139° Southeast 193 222 7,800 -629 Descending Denver Center
Fri 08:40:36 PM 42.9422 -106.5597 142° Southeast 190 219 7,000 -774 Descending Denver Center
Fri 08:42:00 PM 42.9080 -106.4644 124° Southeast  Level Estimated

Login

Don't have an account? Register now (free) for customized features, flight alerts, and more!